This is the latest recevied weather packets stored in our database for station/object F5ZYU-10. If no packets are shown the sender has not sent any weather packets the latest 10 day(s).
| Time | Temp. | Humidity | Pressure | Rain* | Wind** | Luminosity | Snow |
|---|---|---|---|---|---|---|---|
| 1787469225 | 19.44° C | 66% | 1026.3 hPa | - | - | - | - |
| 1787468325 | 18.89° C | 67% | 1026.2 hPa | - | - | - | - |
| 1787467425 | 18.89° C | 67% | 1026.2 hPa | - | - | - | - |
| 1787466527 | 18.33° C | 67% | 1026.1 hPa | - | - | - | - |
| 1787465627 | 18.33° C | 68% | 1026.1 hPa | - | - | - | - |
| 1787464726 | 18.33° C | 69% | 1026 hPa | - | - | - | - |
| 1787463826 | 18.33° C | 71% | 1025.9 hPa | - | - | - | - |
| 1787462924 | 18.33° C | 70% | 1025.7 hPa | - | - | - | - |
| 1787462024 | 18.33° C | 70% | 1025.7 hPa | - | - | - | - |
| 1787461132 | 18.33° C | 71% | 1025.6 hPa | - | - | - | - |
| 1787460223 | 18.33° C | 73% | 1025.4 hPa | - | - | - | - |
| 1787459323 | 18.89° C | 72% | 1025.3 hPa | - | - | - | - |
| 1787458424 | 18.89° C | 72% | 1025.3 hPa | - | - | - | - |
| 1787457524 | 18.89° C | 72% | 1025.4 hPa | - | - | - | - |
| 1787456624 | 18.89° C | 72% | 1025.4 hPa | - | - | - | - |
| 1787455725 | 18.89° C | 73% | 1025.3 hPa | - | - | - | - |
| 1787454832 | 18.89° C | 72% | 1025.4 hPa | - | - | - | - |
| 1787453919 | 18.89° C | 72% | 1025.3 hPa | - | - | - | - |
| 1787453237 | 18.89° C | 72% | 1025.4 hPa | - | - | - | - |
| 1787452119 | 18.89° C | 73% | 1025.5 hPa | - | - | - | - |
| 1787451488 | 18.89° C | 72% | 1025.6 hPa | - | - | - | - |
| 1787450335 | 18.89° C | 72% | 1025.6 hPa | - | - | - | - |
| 1787449426 | 18.89° C | 72% | 1025.6 hPa | - | - | - | - |
| 1787448534 | 19.44° C | 70% | 1025.6 hPa | - | - | - | - |
| 1787445825 | 19.44° C | 73% | 1025.9 hPa | - | - | - | - |
* Rain since midnight (hover to see other rain measurements)
** Current wind speed in m/s (hover to see current wind gust speed)